Location: Gull Harbor
(47.1000°N, 122.9000°W)
Time: 15:36:36
(UTC-07:00)

Tiangong 1 - Visible Passes

Search period start: 24 July 2017 00:00
Search period end: 03 August 2017 00:00
Orbit: 315 x 342 km, 42.8° (Epoch: 23 July)

Date Brightness Start Highest point End Pass type
(mag) Time Alt. Az. Time Alt. Az. Time Alt. Az.
28 Jul 3.4 04:34:27 10° SSE 04:34:44 10° SSE 04:35:02 10° SE visible
29 Jul 2.7 04:50:35 11° SSW 04:52:19 18° SSE 04:54:17 10° ESE visible
30 Jul 2.1 05:07:36 10° SW 05:09:58 26° SSE 05:12:21 10° ESE visible
31 Jul 3.0 03:53:17 15° SE 03:53:17 15° SE 03:54:27 10° ESE visible
01 Aug 2.0 04:10:07 25° SSE 04:10:07 25° SSE 04:12:28 10° ESE visible
02 Aug 1.6 04:26:57 26° SSW 04:27:39 31° S 04:30:10 10° ESE visible
